Location: Ku?niki
(51.4449°N, 17.8974°E)
Time: 16:21:20
(UTC+00:00)

NOSS 2-2 (C) - Pass Details

Date: 18 September 2020
Orbit: 468 x 1740 km, 63.3° (Epoch: 19 October)

Event Time Altitude Azimuth Distance (km) Brightness Sun altitude
Rises 18:16:30 0° 206° (SSW) 2,499 6.8 -13.2°
Reaches altitude 10° 18:18:35 10° 200° (SSW) 1,628 5.7 -13.5°
Maximum altitude 18:21:56 46° 126° (SE) 677 3.3 -14.0°
Drops below altitude 10° 18:25:45 10° 53° (NE) 1,847 5.7 -14.6°
Sets 18:28:15 0° 48° (NE) 2,887 6.7 -14.9°
Enters shadow 18:28:18 - 47° (NE) 2,906 6.8 -14.9°
